Погода в Кенитре

Марокко     34°15′37″N   6°34′34″W
темп.,
°C
ветер,
м/с
пор.,
м/с
влажн.,
%
обл.,
%
осадки,
мм/ч
давл.,
гПа
погр.,
м
21 июня, пн
пн2101:00+17юз128527 0.0 101719
04:00+18ю118098 0.0 101577
07:00+18ю2277100 0.0 1016133
10:00+22з225940 0.0 1016865
13:00+23ссз656353 0.1 1016902
16:00+24сз655330 0.0 10161096
19:00+21сз56590 0.0 1016844
22:00+18сз24690 0.0 101889
22 июня, вт
вт2201:00+16сз11740 0.0 101817
04:00+15ю118036 0.0 101719
07:00+16ююз227821 0.0 101757
10:00+22зсз335654 0.1 10181154
13:00+24зсз64452 0.1 10181496
16:00+24сз76511 0.0 10181245
19:00+21сз55580 0.0 1018853
22:00+17зсз12780 0.0 101916
23 июня, ср
ср2301:00+16з11880 0.0 101815
04:00+16ююв119115 0.0 101815
07:00+16ююв22880 0.0 101754
10:00+22с22540 0.0 1017779
13:00+27сз64400 0.0 10161281
16:00+27ссз65430 0.0 10141005
19:00+23ссз66590 0.0 1014658
22:00+19сз34890 0.0 101685
24 июня, чт
чт2401:00+18зсз11920 0.0 101514
04:00+17ю11930 0.0 101413
07:00+17ю11920 0.0 101416
10:00+24с22540 0.0 1013607
13:00+31ссз44320 0.0 10131135
16:00+28сз65450 0.0 1012556
19:00+26зсз45490 0.0 1011390
22:00+21юз58780 0.0 1013174
25 июня, пт
пт2501:00+20юз47800 0.0 1013153
04:00+19ююз33830 0.0 101244
07:00+20ююз22750 0.0 101339
10:00+28с12420 0.0 1013588
13:00+33сз54320 0.0 1012965
16:00+29зсз65460 0.0 1012534
19:00+26з45580 0.0 1012330
22:00+21юз46880 0.0 1013152